Location: Betoncourt-l�s-Brotte
(47.7414°N, 6.3413°E)
Time: 18:19:42
(UTC+00:00)

Daily predictions for brighter satellites

Satellite Brightness Start Highest point End
(mag) Time Altitude Azimuth Time Altitude Azimuth Time Altitude Azimuth
Cosmos 1655 Rocket 4.3 16:45:30 10° N 16:51:57 82° W 16:58:20 10° S
BREEZE-M R/B 3.1 16:49:57 10° W 16:53:07 73° N 16:59:08 10° ENE
AQUARIUS 4.1 16:49:33 10° SSE 16:54:01 74° ENE 16:58:32 10° N
ATLAS 2AS CENTAUR R/B 4.2 16:48:01 10° NW 16:54:13 25° N 17:00:08 10° ENE
Okean-O 3.9 16:52:26 10° ESE 16:55:47 22° ENE 16:59:09 10° NNE
Cosmos 1606 Rocket 4.1 16:51:49 10° SSE 16:55:51 38° E 16:59:57 10° NNE
USA 215 4.0 16:49:57 10° ENE 16:55:56 40° N 17:01:55 10° WNW
USA 307 3.8 16:53:38 10° WNW 16:57:38 36° N 17:01:37 10° ENE
USA 308 3.8 16:58:30 10° WNW 17:02:30 37° N 17:06:29 10° ENE
Cosmos 2266 Rocket 4.2 16:58:27 10° N 17:04:42 83° W 17:11:01 10° S
Cosmos 1809 Rocket 4.5 16:58:46 10° N 17:04:57 85° E 17:11:04 10° S
CZ-4C R/B 4.2 17:01:01 10° NW 17:05:32 20° N 17:10:39 10° NE
Cosmos 1939 Rocket 3.4 17:03:21 10° SE 17:07:00 36° ENE 17:10:36 10° N
COSMOS 2487 3.4 17:03:39 10° NNW 17:07:01 51° WSW 17:10:20 10° S
Cosmos 1328 4.0 17:03:54 10° NNW 17:07:52 77° W 17:11:47 10° S
Cosmos 2219 3.6 17:02:39 10° NNW 17:08:08 43° NE 17:13:35 10° SE
Aureole 3 4.1 17:06:18 10° SE 17:08:35 18° E 17:10:46 10° NE
Helios 1A Rocket 3.8 17:05:37 10° SE 17:09:11 29° ENE 17:12:44 10° N
Cosmos 1110 Rocket 4.0 17:05:41 10° S 17:10:52 65° ESE 17:16:04 10° NNE
Cosmos 1943 Rocket 4.4 17:12:24 10° W 17:16:16 19° NW 17:20:07 10° N
Cosmos 44 3.5 17:13:03 10° SSW 17:17:21 47° ESE 17:21:55 10° NE
Aureole 3 Rocket 3.8 17:14:40 10° SSE 17:18:13 33° E 17:22:54 10° NNE
CZ-2C R/B 3.9 17:13:27 10° SE 17:18:33 33° ENE 17:23:32 10° N
NOSS 2-2 (C) 4.5 17:16:40 10° NW 17:22:00 65° NE 17:29:25 10° SE
Cosmos 1953 Rocket 3.5 17:19:50 10° N 17:24:14 69° ENE 17:28:39 10° SSE
Cosmos 2058 4.1 17:23:18 10° NNE 17:26:30 22° ENE 17:29:42 10° ESE
ATLAS 5 CENTAUR R/B 3.7 17:23:29 10° WNW 17:26:44 20° NNW 17:30:20 10° NNE
Cosmos 2058 Rocket 3.5 17:22:43 10° SSE 17:26:55 41° E 17:31:10 10° NNE
FALCON 9 DEB 4.3 17:24:42 10° WNW 17:27:51 32° N 17:30:07 16° ENE
CZ-4 R/B 1.9 17:25:21 10° SE 17:28:53 34° ENE 17:32:24 10° N
CZ-4B R/B 4.4 17:24:25 10° S 17:29:49 47° W 17:35:09 10° NNW
Cosmos 1400 Rocket 3.2 17:26:31 10° SSE 17:30:23 41° E 17:34:14 10° NNE
Lacrosse 5 3.2 17:26:57 10° WNW 17:31:26 31° N 17:35:34 12° NE
GENESIS II 4.2 17:27:42 10° SW 17:31:45 86° ESE 17:35:49 10° NE
ADEOS Rocket 4.1 17:26:44 10° N 17:32:48 51° WNW 17:39:29 10° SW
ERBS 4.4 17:33:14 10° NW 17:35:37 18° N 17:37:46 11° NE
ARGOS 4.2 17:31:49 11° ESE 17:35:55 25° ENE 17:40:18 10° N
USA 281 4.3 17:31:51 10° S 17:38:08 48° WSW 17:44:28 10° NW
Cosmos 1656 4.0 17:36:45 10° S 17:41:55 41° ESE 17:47:11 10° NE
FALCON 9 DEB 3.2 17:40:26 10° SW 17:43:35 52° SE 17:44:57 29° E
Cosmos 2227 Rocket 2.2 17:38:01 10° NNW 17:43:38 58° ENE 17:49:12 10° SE
Cosmos 292 Rocket 3.7 17:40:07 10° SSW 17:44:54 88° ESE 17:49:46 10° NNE
Cosmos 1892 3.0 17:42:41 10° N 17:46:25 43° ENE 17:50:08 10° SSE
CZ-4B R/B 2.7 17:44:45 10° N 17:47:51 40° WNW 17:50:50 10° SW
FALCON 9 DEB 3.0 17:45:46 10° SW 17:48:55 61° SSE 17:50:05 34° E
USA 305 3.4 17:44:57 10° WNW 17:49:07 47° NNE 17:51:11 26° ENE
S3M 4.3 17:44:18 10° SSE 17:49:55 40° E 17:55:37 10° NNE
COSMO-SKYMED 1 2.5 17:45:35 10° NNE 17:49:58 80° ESE 17:54:18 10° S
Cosmos 2263 Rocket 3.8 17:46:54 10° N 17:50:32 17° NE 17:51:44 16° NE
CSL-04 Rocket 4.0 17:46:46 10° SE 17:51:59 44° ENE 17:57:12 10° N
GEOS 3 Rocket 3.8 17:48:39 17° ESE 17:52:43 56° NE 17:58:00 10° NW
SL-4 R/B 2.3 17:50:26 10° WNW 17:53:52 44° N 17:55:22 28° ENE
USA 306 3.3 17:51:18 10° WNW 17:55:29 49° NNE 17:57:16 30° ENE
Timation 2 Rocket 4.5 17:50:04 10° NNW 17:56:38 69° WSW 18:03:22 10° SSE
Cosmos 1346 Rocket 3.1 17:53:37 10° N 17:57:27 43° ENE 17:59:45 21° SE
H-2A R/B 2.4 17:52:27 10° SE 17:57:36 47° ENE 18:02:49 10° N
Cosmos 1076 Rocket 4.1 17:54:11 10° N 17:58:02 33° ENE 17:58:50 30° E
CZ-2D R/B 3.2 17:54:51 10° SSE 17:58:40 83° WSW 18:02:29 10° NNW
Cosmos 1300 3.5 17:55:03 10° SSW 17:58:47 54° WNW 18:02:33 10° N
FALCON 9 DEB 2.9 17:56:24 10° SW 17:59:37 70° SSE 18:00:24 46° E
Cosmos 1315 Rocket 4.2 17:56:49 10° SSE 17:58:40 22° SE 17:58:40 22° SE
Okean O Rocket 4.3 17:57:05 10° SW 18:00:30 22° W 18:03:55 10° NW
Cosmos 1408 2.9 17:57:15 10° N 18:00:44 40° ENE 18:01:18 37° ESE
Cosmos 1417 Rocket 4.5 17:55:13 10° S 18:01:20 61° E 18:07:34 10° NNE
Cosmos 1697 Rocket 3.3 17:57:20 10° SSE 18:02:16 33° ESE 18:04:15 26° ENE
Ariane Rocket 4.3 18:04:42 22° NE 18:04:42 22° NE 18:08:11 10° N
YAOGAN 1 2.4 18:01:47 10° SSE 18:06:05 76° ENE 18:10:26 10° N
Geosat 4.2 18:03:24 18° NE 18:06:54 47° ESE 18:11:44 10° S
SL-08 ROCKET BODY 4.3 18:02:41 10° N 18:08:48 74° E 18:14:58 10° SSE
Cosmos 1825 3.3 18:06:51 10° N 18:09:07 27° NE 18:09:07 27° NE
FALCON 9 DEB 2.8 18:09:03 10° WSW 18:12:16 90° NNW 18:12:34 72° ENE
Meteor 2-8 Rocket 4.5 18:08:26 10° S 18:14:32 83° W 18:20:44 10° N
Cosmos 1553 Rocket 4.0 18:13:34 10° S 18:19:57 89° W 18:26:16 10° N
Cosmos 1689 Rocket 3.7 18:17:41 10° N 18:20:22 33° WNW 18:22:59 10° SW
Cosmos 1340 3.8 18:20:04 10° NNW 18:23:41 44° W 18:27:16 10° SSW
Cosmos 2297 Rocket 2.6 18:18:04 10° NNW 18:23:41 63° WSW 18:29:15 10° SSE
Cosmos 1980 Rocket 4.0 18:19:55 10° SSE 18:21:06 15° SSE 18:21:06 15° SSE
NOSS 3-4 (A) 4.3 18:18:37 10° NW 18:25:00 42° NE 18:27:18 33° ENE
NOSS 3-4 (C) 4.3 18:18:43 10° NW 18:25:06 41° NE 18:27:24 33° ENE
SL-08 RB Rocket 4.4 18:28:47 35° NE 18:28:47 35° NE 18:31:58 10° N
SeaSat 1 2.4 18:29:14 47° ESE 18:30:28 64° ENE 18:35:22 10° NNW
CSL-04 Debris 4.1 18:25:40 10° SSE 18:31:06 90° SW 18:36:37 10° NNW
Okean-O 3.6 18:27:41 10° S 18:31:58 48° W 18:36:17 10° NNW
NOSS 3-3 (A) 3.9 18:29:37 10° SSW 18:35:15 56° ESE 18:36:52 43° ENE
NOSS 3-3 (C) 3.9 18:29:42 10° SSW 18:35:22 55° ESE 18:37:00 43° ENE
Meteor 2-15 Rocket 4.3 18:29:50 10° S 18:35:58 78° E 18:42:08 10° NNE
Cosmos 2360 4.4 18:31:35 10° S 18:36:44 47° ESE 18:36:44 47° ESE
USA 307 2.8 18:33:51 10° WNW 18:38:09 74° NNE 18:38:09 74° NNE
USA 215 3.5 18:36:03 38° ENE 18:38:16 54° NNE 18:44:36 10° NW
CRYOSAT 2 4.3 18:37:34 10° N 18:42:28 85° W 18:47:19 10° S
USA 308 2.9 18:38:42 10° WNW 18:42:48 76° N 18:42:48 76° N
Cosmos 968 Rocket 4.1 18:39:41 10° NNW 18:44:48 56° WSW 18:49:24 12° S
Cosmos 1745 Rocket 4.2 18:38:36 10° NNW 18:44:52 72° W 18:51:10 10° S
ATLAS 2AS CENTAUR R/B 3.2 18:39:58 10° NW 18:47:15 45° NE 18:48:35 41° ENE
Cosmos 1455 4.1 18:44:03 10° SSW 18:45:23 21° SSW 18:45:23 21° SSW
CZ-4C R/B 3.7 18:50:09 10° NNW 18:56:11 33° NNE 18:57:04 32° NE
MOS 1 Rocket 3.6 18:53:27 10° N 18:58:03 66° WNW 19:02:54 10° SSW
CZ-2C R/B 4.3 18:52:42 10° S 18:58:15 45° W 19:03:41 10° NNW
Cosmos 220 Rocket 4.4 18:55:46 10° SSW 18:59:40 63° WSW 18:59:40 63° WSW
Cosmos 2082 3.9 18:56:11 10° NNW 19:01:54 68° WSW 19:03:45 43° S
Cosmos 2058 4.4 18:59:46 10° NNW 19:03:32 36° W 19:06:04 18° SSW
CZ-4 R/B 3.8 19:00:59 10° SW 19:04:00 21° W 19:07:01 10° NW
Meteor 2-10 Rocket 4.4 19:03:54 10° SSW 19:09:03 49° WNW 19:14:03 10° N
ATLAS 5 CENTAUR R/B 4.2 19:10:47 10° NNW 19:13:21 14° N 19:13:42 14° N
Cosmos 1709 Rocket 4.1 19:08:26 10° NNW 19:14:48 75° W 19:17:52 33° S
Cosmos 2369 3.7 19:09:16 10° SSW 19:14:49 82° W 19:14:49 82° W
Lacrosse 5 3.2 19:10:59 10° NW 19:14:46 31° N 19:14:46 31° N
ARGOS 3.7 19:13:21 31° SSW 19:15:49 56° W 19:21:11 10° NNW
Timation 1 Rocket 4.3 19:10:00 10° NNW 19:16:02 80° WSW 19:16:23 76° SSW
BREEZE-M R/B 4.0 19:11:23 10° WNW 19:16:10 86° SSW 19:16:54 73° ESE
Atlas Centaur 2 4.4 19:17:44 10° SW 19:23:52 22° S 19:23:52 22° S
Cosmos 2227 Rocket 4.2 19:22:45 10° NW 19:27:17 25° WSW 19:31:48 10° SSW
Cosmos 2315 Rocket 4.1 19:26:16 10° SSW 19:32:27 71° WNW 19:38:40 10° N
Cosmos 2263 Rocket 3.2 19:29:52 10° NNW 19:33:26 39° NNW 19:33:26 39° NNW
H-2A R/B 3.9 19:32:33 10° SSW 19:37:12 29° W 19:41:54 10° NW
Ariane Rocket 4.4 19:44:55 34° NW 19:44:55 34° NW 19:47:55 10° NNW
Cosmos 1697 Rocket 3.6 19:40:43 10° SW 19:46:04 45° NW 19:46:04 45° NW
NOSS 3-4 (A) 4.4 20:09:25 10° NW 20:14:45 52° WNW 20:14:45 52° WNW
NOSS 3-4 (C) 4.4 20:09:31 10° NW 20:14:51 53° WNW 20:14:51 53° WNW
USA 215 4.2 20:23:24 43° WNW 20:23:24 43° WNW 20:27:43 10° WNW
ATLAS 2AS CENTAUR R/B 3.9 20:31:14 10° NW 20:36:01 40° WNW 20:36:01 40° WNW
CZ-4C R/B 4.0 20:38:29 10° NW 20:42:14 36° NW 20:42:14 36° NW
